Time,TemperatureF,DewpointF,PressureIn,WindDirection,WindDirectionDegrees,WindSpeedMPH,WindSpeedGustMPH,Humidity,HourlyPrecipIn,Conditions,Clouds,dailyrainin,SoftwareType,DateUTC
2013-01-11 00:00:00,38.2,31.6,30.14,NW,315,0.0,0.0,77,0.00,,,0.00,WUHU216HW,2013-01-11 08:00:00,
2013-01-11 00:05:00,38.2,31.6,30.14,NW,315,0.0,0.0,77,0.00,,,0.00,WUHU216HW,2013-01-11 08:05:00,
2013-01-11 00:10:00,38.2,31.6,30.14,NW,315,0.0,0.0,77,0.00,,,0.00,WUHU216HW,2013-01-11 08:10:00,
2013-01-11 00:30:00,37.1,30.3,30.14,North,0,0.7,0.7,76,0.00,,,0.00,WUHU216HW,2013-01-11 08:30:00,
2013-01-11 00:35:00,37.1,30.3,30.14,NNW,338,0.9,0.9,76,0.00,,,0.00,WUHU216HW,2013-01-11 08:35:00,
2013-01-11 00:40:00,37.1,30.3,30.14,NNW,338,0.9,0.9,76,0.00,,,0.00,WUHU216HW,2013-01-11 08:40:00,
2013-01-11 01:00:00,36.7,30.2,30.13,NNW,338,0.4,0.4,77,0.00,,,0.00,WUHU216HW,2013-01-11 09:00:00,
2013-01-11 01:05:00,36.7,30.2,30.13,NNW,338,0.0,0.4,77,0.00,,,0.00,WUHU216HW,2013-01-11 09:05:00,
2013-01-11 01:10:00,36.7,30.2,30.13,NNW,338,0.0,0.0,77,0.00,,,0.00,WUHU216HW,2013-01-11 09:10:00,
2013-01-11 01:30:00,37.3,30.7,30.13,SW,225,0.4,0.4,77,0.00,,,0.00,WUHU216HW,2013-01-11 09:30:00,
2013-01-11 01:35:00,37.3,30.7,30.13,SW,225,0.4,0.4,77,0.00,,,0.00,WUHU216HW,2013-01-11 09:35:00,
2013-01-11 01:40:00,37.3,30.7,30.13,SW,225,0.4,0.4,77,0.00,,,0.00,WUHU216HW,2013-01-11 09:40:00,
2013-01-11 02:00:00,37.6,31.1,30.14,SW,225,1.1,1.1,77,0.00,,,0.00,WUHU216HW,2013-01-11 10:00:00,
2013-01-11 02:05:00,37.6,31.1,30.13,SW,225,1.8,1.8,77,0.00,,,0.00,WUHU216HW,2013-01-11 10:05:00,
2013-01-11 02:10:00,37.6,31.1,30.13,SW,225,1.8,1.8,77,0.00,,,0.00,WUHU216HW,2013-01-11 10:10:00,
2013-01-11 02:30:00,37.6,31.1,30.13,SE,135,0.0,0.0,77,0.00,,,0.00,WUHU216HW,2013-01-11 10:30:00,
2013-01-11 02:35:00,37.6,31.1,30.13,SE,135,0.0,0.0,77,0.00,,,0.00,WUHU216HW,2013-01-11 10:35:00,
2013-01-11 02:40:00,37.6,31.1,30.13,SE,135,0.0,0.0,77,0.00,,,0.00,WUHU216HW,2013-01-11 10:40:00,
2013-01-11 03:00:00,37.4,31.2,30.14,NW,315,0.2,0.2,78,0.00,,,0.00,WUHU216HW,2013-01-11 11:00:00,
2013-01-11 03:05:00,37.4,30.9,30.14,NW,315,0.0,0.2,77,0.00,,,0.00,WUHU216HW,2013-01-11 11:05:00,
2013-01-11 03:10:00,37.4,30.9,30.14,NW,315,0.0,0.0,77,0.00,,,0.00,WUHU216HW,2013-01-11 11:10:00,
2013-01-11 03:30:00,37.8,31.6,30.14,North,0,1.3,1.3,78,0.00,,,0.00,WUHU216HW,2013-01-11 11:30:00,
2013-01-11 03:35:00,37.8,31.2,30.14,SW,225,1.1,2.2,77,0.00,,,0.00,WUHU216HW,2013-01-11 11:35:00,
2013-01-11 03:40:00,37.8,31.2,30.14,SW,225,1.1,2.2,77,0.00,,,0.00,WUHU216HW,2013-01-11 11:40:00,
2013-01-11 04:00:00,37.6,31.4,30.14,NNW,338,0.2,0.2,78,0.00,,,0.00,WUHU216HW,2013-01-11 12:00:00,
2013-01-11 04:05:00,37.4,31.2,30.14,NNW,338,0.4,0.4,78,0.00,,,0.00,WUHU216HW,2013-01-11 12:05:00,
2013-01-11 04:10:00,37.4,31.2,30.14,NNW,338,0.4,0.4,78,0.00,,,0.00,WUHU216HW,2013-01-11 12:10:00,
2013-01-11 04:30:00,38.5,32.3,30.13,SSW,203,3.4,3.4,78,0.00,,,0.00,WUHU216HW,2013-01-11 12:30:00,
2013-01-11 04:35:00,38.5,32.0,30.13,NNW,338,2.9,3.4,77,0.00,,,0.00,WUHU216HW,2013-01-11 12:35:00,
2013-01-11 04:40:00,38.5,32.0,30.13,NNW,338,2.9,3.4,77,0.00,,,0.00,WUHU216HW,2013-01-11 12:40:00,
2013-01-11 05:00:00,38.5,31.6,30.15,WNW,293,2.0,2.0,76,0.00,,,0.00,WUHU216HW,2013-01-11 13:00:00,
2013-01-11 05:05:00,38.5,32.0,30.14,NW,315,1.8,2.0,77,0.00,,,0.00,WUHU216HW,2013-01-11 13:05:00,
2013-01-11 05:10:00,38.5,32.0,30.14,NW,315,1.8,1.8,77,0.00,,,0.00,WUHU216HW,2013-01-11 13:10:00,
2013-01-11 05:30:00,38.0,31.4,30.16,WNW,293,0.9,0.9,77,0.00,,,0.00,WUHU216HW,2013-01-11 13:30:00,
2013-01-11 05:35:00,38.0,31.4,30.16,WNW,293,0.9,0.9,77,0.00,,,0.00,WUHU216HW,2013-01-11 13:35:00,
2013-01-11 05:40:00,38.0,31.4,30.16,WNW,293,0.9,0.9,77,0.00,,,0.00,WUHU216HW,2013-01-11 13:40:00,
2013-01-11 06:00:00,37.4,30.9,30.17,WNW,293,0.2,0.2,77,0.00,,,0.00,WUHU216HW,2013-01-11 14:00:00,
2013-01-11 06:05:00,37.4,30.9,30.17,WNW,293,0.0,0.2,77,0.00,,,0.00,WUHU216HW,2013-01-11 14:05:00,
2013-01-11 06:10:00,37.4,30.9,30.17,WNW,293,0.0,0.0,77,0.00,,,0.00,WUHU216HW,2013-01-11 14:10:00,
2013-01-11 06:30:00,37.6,30.8,30.17,NW,315,0.4,0.4,76,0.00,,,0.00,WUHU216HW,2013-01-11 14:30:00,
2013-01-11 06:35:00,37.4,30.6,30.17,West,270,0.7,0.7,76,0.00,,,0.00,WUHU216HW,2013-01-11 14:35:00,
2013-01-11 06:40:00,37.4,30.6,30.17,West,270,0.7,0.7,76,0.00,,,0.00,WUHU216HW,2013-01-11 14:40:00,
2013-01-11 07:00:00,37.3,30.4,30.18,SSW,203,0.0,0.0,76,0.00,,,0.00,WUHU216HW,2013-01-11 15:00:00,
2013-01-11 07:05:00,37.3,30.4,30.18,SSW,203,0.0,0.0,76,0.00,,,0.00,WUHU216HW,2013-01-11 15:05:00,
2013-01-11 07:10:00,37.3,30.4,30.18,SSW,203,0.0,0.0,76,0.00,,,0.00,WUHU216HW,2013-01-11 15:10:00,
2013-01-11 07:30:00,35.3,29.1,30.19,NW,315,0.0,0.0,78,0.00,,,0.00,WUHU216HW,2013-01-11 15:30:00,
2013-01-11 07:35:00,35.3,29.1,30.19,NW,315,0.0,0.0,78,0.00,,,0.00,WUHU216HW,2013-01-11 15:35:00,
2013-01-11 07:40:00,35.3,29.1,30.19,NW,315,0.0,0.0,78,0.00,,,0.00,WUHU216HW,2013-01-11 15:40:00,
2013-01-11 08:00:00,36.7,31.1,30.20,NNW,338,0.0,0.0,80,0.00,,,0.00,WUHU216HW,2013-01-11 16:00:00,
2013-01-11 08:05:00,36.9,31.3,30.20,NNW,338,0.0,0.0,80,0.00,,,0.00,WUHU216HW,2013-01-11 16:05:00,
2013-01-11 08:10:00,36.9,31.3,30.20,NNW,338,0.0,0.0,80,0.00,,,0.00,WUHU216HW,2013-01-11 16:10:00,
2013-01-11 08:30:00,35.8,29.6,30.21,NNW,338,0.0,0.0,78,0.00,,,0.00,WUHU216HW,2013-01-11 16:30:00,
2013-01-11 08:35:00,35.8,29.6,30.21,NNW,338,0.0,0.0,78,0.00,,,0.00,WUHU216HW,2013-01-11 16:35:00,
2013-01-11 08:40:00,35.8,29.6,30.21,NNW,338,0.0,0.0,78,0.00,,,0.00,WUHU216HW,2013-01-11 16:40:00,
2013-01-11 09:00:00,37.4,31.2,30.21,NNE,23,0.0,0.0,78,0.00,,,0.00,WUHU216HW,2013-01-11 17:00:00,
2013-01-11 09:05:00,37.4,31.2,30.21,NNE,23,0.0,0.0,78,0.00,,,0.00,WUHU216HW,2013-01-11 17:05:00,
2013-01-11 09:10:00,37.4,31.2,30.21,NNE,23,0.0,0.0,78,0.00,,,0.00,WUHU216HW,2013-01-11 17:10:00,
2013-01-11 09:30:00,38.5,32.6,30.21,NE,45,0.0,0.0,79,0.00,,,0.00,WUHU216HW,2013-01-11 17:30:00,
2013-01-11 09:35:00,38.5,32.6,30.21,NE,45,0.0,0.0,79,0.00,,,0.00,WUHU216HW,2013-01-11 17:35:00,
2013-01-11 09:40:00,38.5,32.6,30.21,NE,45,0.0,0.0,79,0.00,,,0.00,WUHU216HW,2013-01-11 17:40:00,
2013-01-11 10:00:00,39.2,33.3,30.21,NE,45,0.0,0.0,79,0.00,,,0.00,WUHU216HW,2013-01-11 18:00:00,
2013-01-11 10:05:00,39.4,33.1,30.21,NE,45,0.0,0.0,78,0.00,,,0.00,WUHU216HW,2013-01-11 18:05:00,
2013-01-11 10:10:00,39.4,33.1,30.21,NE,45,0.0,0.0,78,0.00,,,0.00,WUHU216HW,2013-01-11 18:10:00,
2013-01-11 10:30:00,41.4,34.7,30.21,East,90,0.2,0.2,77,0.00,,,0.00,WUHU216HW,2013-01-11 18:30:00,
2013-01-11 10:35:00,41.4,34.7,30.21,East,90,0.0,0.2,77,0.00,,,0.00,WUHU216HW,2013-01-11 18:35:00,
2013-01-11 10:40:00,41.4,34.7,30.21,East,90,0.0,0.2,77,0.00,,,0.00,WUHU216HW,2013-01-11 18:40:00,
2013-01-11 11:00:00,43.2,35.5,30.20,NNW,338,0.4,0.4,74,0.00,,,0.00,WUHU216HW,2013-01-11 19:00:00,
2013-01-11 11:05:00,43.2,35.5,30.20,NW,315,1.1,1.1,74,0.00,,,0.00,WUHU216HW,2013-01-11 19:05:00,
2013-01-11 11:10:00,43.2,35.5,30.20,NW,315,1.1,1.1,74,0.00,,,0.00,WUHU216HW,2013-01-11 19:10:00,
2013-01-11 11:30:00,44.8,36.6,30.18,SSW,203,2.0,2.0,73,0.00,,,0.00,WUHU216HW,2013-01-11 19:30:00,
2013-01-11 11:35:00,44.8,36.4,30.18,SSW,203,2.0,2.0,72,0.00,,,0.00,WUHU216HW,2013-01-11 19:35:00,
2013-01-11 11:40:00,44.8,36.4,30.18,SSW,203,2.0,2.0,72,0.00,,,0.00,WUHU216HW,2013-01-11 19:40:00,
2013-01-11 12:00:00,45.7,36.9,30.16,SSE,158,1.1,1.1,71,0.00,,,0.00,WUHU216HW,2013-01-11 20:00:00,
2013-01-11 12:05:00,45.7,36.5,30.16,SSW,203,1.1,1.1,70,0.00,,,0.00,WUHU216HW,2013-01-11 20:05:00,
2013-01-11 12:10:00,45.7,36.5,30.16,SSW,203,1.1,1.1,70,0.00,,,0.00,WUHU216HW,2013-01-11 20:10:00,
2013-01-11 12:30:00,46.6,36.6,30.14,SSW,203,1.8,1.8,68,0.00,,,0.00,WUHU216HW,2013-01-11 20:30:00,
2013-01-11 12:35:00,46.6,36.6,30.14,SW,225,1.3,1.8,68,0.00,,,0.00,WUHU216HW,2013-01-11 20:35:00,
2013-01-11 12:40:00,46.6,36.6,30.14,SW,225,1.3,1.8,68,0.00,,,0.00,WUHU216HW,2013-01-11 20:40:00,
2013-01-11 13:00:00,47.2,36.7,30.13,SSW,203,0.7,0.7,67,0.00,,,0.00,WUHU216HW,2013-01-11 21:00:00,
2013-01-11 13:05:00,47.2,36.7,30.13,SSW,203,1.1,1.1,67,0.00,,,0.00,WUHU216HW,2013-01-11 21:05:00,
2013-01-11 13:10:00,47.2,36.7,30.13,SSW,203,1.1,1.1,67,0.00,,,0.00,WUHU216HW,2013-01-11 21:10:00,
2013-01-11 13:30:00,48.2,37.4,30.12,SSW,203,1.3,1.3,66,0.00,,,0.00,WUHU216HW,2013-01-11 21:30:00,
2013-01-11 13:35:00,48.2,37.4,30.12,SSW,203,2.2,2.2,66,0.00,,,0.00,WUHU216HW,2013-01-11 21:35:00,
2013-01-11 13:40:00,48.2,37.4,30.12,SSW,203,2.2,2.2,66,0.00,,,0.00,WUHU216HW,2013-01-11 21:40:00,
2013-01-11 14:00:00,49.7,38.0,30.12,NNW,338,1.6,1.6,64,0.00,,,0.00,WUHU216HW,2013-01-11 22:00:00,
2013-01-11 14:05:00,49.7,38.0,30.12,North,0,4.0,4.0,64,0.00,,,0.00,WUHU216HW,2013-01-11 22:05:00,
2013-01-11 14:10:00,49.7,38.0,30.12,North,0,4.0,4.0,64,0.00,,,0.00,WUHU216HW,2013-01-11 22:10:00,
2013-01-11 14:30:00,50.0,37.9,30.12,WNW,293,0.7,0.7,63,0.00,,,0.00,WUHU216HW,2013-01-11 22:30:00,
2013-01-11 14:35:00,50.0,37.9,30.12,WNW,293,0.7,0.7,63,0.00,,,0.00,WUHU216HW,2013-01-11 22:35:00,
2013-01-11 14:40:00,50.0,37.9,30.12,WNW,293,0.7,0.7,63,0.00,,,0.00,WUHU216HW,2013-01-11 22:40:00,
2013-01-11 15:00:00,50.8,37.8,30.11,SSW,203,3.1,3.1,61,0.00,,,0.00,WUHU216HW,2013-01-11 23:00:00,
2013-01-11 15:05:00,50.8,37.8,30.11,SW,225,2.7,3.1,61,0.00,,,0.00,WUHU216HW,2013-01-11 23:05:00,
2013-01-11 15:10:00,50.8,37.8,30.11,SW,225,2.7,2.7,61,0.00,,,0.00,WUHU216HW,2013-01-11 23:10:00,
2013-01-11 15:30:00,50.8,38.2,30.10,NNW,338,1.6,1.6,62,0.00,,,0.00,WUHU216HW,2013-01-11 23:30:00,
2013-01-11 15:35:00,50.8,38.2,30.10,WSW,248,2.2,2.2,62,0.00,,,0.00,WUHU216HW,2013-01-11 23:35:00,
2013-01-11 15:40:00,50.8,38.2,30.10,WSW,248,2.2,2.2,62,0.00,,,0.00,WUHU216HW,2013-01-11 23:40:00,
2013-01-11 16:00:00,50.0,38.4,30.10,NW,315,1.1,1.1,64,0.00,,,0.00,WUHU216HW,2013-01-12 00:00:00,
2013-01-11 16:05:00,49.9,38.2,30.10,ENE,68,0.4,1.1,64,0.00,,,0.00,WUHU216HW,2013-01-12 00:05:00,
2013-01-11 16:10:00,49.9,38.2,30.10,ENE,68,0.4,1.1,64,0.00,,,0.00,WUHU216HW,2013-01-12 00:10:00,
2013-01-11 16:30:00,49.3,38.4,30.10,WNW,293,1.1,1.1,66,0.00,,,0.00,WUHU216HW,2013-01-12 00:30:00,
2013-01-11 16:35:00,49.3,38.4,30.10,WNW,293,0.0,1.1,66,0.00,,,0.00,WUHU216HW,2013-01-12 00:35:00,
2013-01-11 16:40:00,49.3,38.4,30.10,WNW,293,0.0,1.1,66,0.00,,,0.00,WUHU216HW,2013-01-12 00:40:00,
2013-01-11 17:00:00,48.6,38.9,30.10,NNW,338,0.0,0.0,69,0.00,,,0.00,WUHU216HW,2013-01-12 01:00:00,
2013-01-11 17:05:00,48.6,38.9,30.10,NW,315,0.4,0.4,69,0.00,,,0.00,WUHU216HW,2013-01-12 01:05:00,
2013-01-11 17:10:00,48.6,38.9,30.10,NW,315,0.4,0.4,69,0.00,,,0.00,WUHU216HW,2013-01-12 01:10:00,
2013-01-11 17:30:00,47.5,38.3,30.09,WSW,248,0.0,0.0,70,0.00,,,0.00,WUHU216HW,2013-01-12 01:30:00,
2013-01-11 17:35:00,47.3,38.1,30.09,WSW,248,0.0,0.0,70,0.00,,,0.00,WUHU216HW,2013-01-12 01:35:00,
2013-01-11 17:40:00,47.3,38.1,30.09,WSW,248,0.0,0.0,70,0.00,,,0.00,WUHU216HW,2013-01-12 01:40:00,
2013-01-11 18:00:00,45.5,37.1,30.10,WSW,248,0.0,0.0,72,0.00,,,0.00,WUHU216HW,2013-01-12 02:00:00,
2013-01-11 18:05:00,45.5,37.1,30.10,WSW,248,0.0,0.0,72,0.00,,,0.00,WUHU216HW,2013-01-12 02:05:00,
2013-01-11 18:10:00,45.5,37.1,30.10,WSW,248,0.0,0.0,72,0.00,,,0.00,WUHU216HW,2013-01-12 02:10:00,
2013-01-11 18:30:00,44.1,36.4,30.10,WSW,248,0.0,0.0,74,0.00,,,0.00,WUHU216HW,2013-01-12 02:30:00,
2013-01-11 18:35:00,44.1,36.4,30.10,WSW,248,0.0,0.0,74,0.00,,,0.00,WUHU216HW,2013-01-12 02:35:00,
2013-01-11 18:40:00,44.1,36.4,30.10,WSW,248,0.0,0.0,74,0.00,,,0.00,WUHU216HW,2013-01-12 02:40:00,
2013-01-11 19:00:00,43.0,36.0,30.10,WSW,248,0.0,0.0,76,0.00,,,0.00,WUHU216HW,2013-01-12 03:00:00,
2013-01-11 19:05:00,43.0,35.7,30.10,WSW,248,0.0,0.0,75,0.00,,,0.00,WUHU216HW,2013-01-12 03:05:00,
2013-01-11 19:10:00,43.0,35.7,30.10,WSW,248,0.0,0.0,75,0.00,,,0.00,WUHU216HW,2013-01-12 03:10:00,
2013-01-11 19:30:00,41.4,34.7,30.10,NNW,338,0.0,0.0,77,0.00,,,0.00,WUHU216HW,2013-01-12 03:30:00,
2013-01-11 19:35:00,41.6,34.8,30.10,NNW,338,0.0,0.0,77,0.00,,,0.00,WUHU216HW,2013-01-12 03:35:00,
2013-01-11 19:40:00,41.6,34.8,30.10,NNW,338,0.0,0.0,77,0.00,,,0.00,WUHU216HW,2013-01-12 03:40:00,
2013-01-11 20:00:00,41.4,35.3,30.10,NNW,338,1.1,1.1,79,0.00,,,0.00,WUHU216HW,2013-01-12 04:00:00,
2013-01-11 20:05:00,41.4,35.3,30.10,NW,315,1.1,1.3,79,0.00,,,0.00,WUHU216HW,2013-01-12 04:05:00,
2013-01-11 20:10:00,41.4,35.3,30.10,NW,315,1.1,1.3,79,0.00,,,0.00,WUHU216HW,2013-01-12 04:10:00,
2013-01-11 20:30:00,41.2,35.7,30.13,North,0,0.2,0.2,81,0.07,,,0.00,WUHU216HW,2013-01-12 04:30:00,
2013-01-11 20:35:00,41.2,35.7,30.13,North,0,0.2,0.2,81,0.07,,,0.08,WUHU216HW,2013-01-12 04:35:00,
2013-01-11 20:40:00,41.2,35.7,30.13,North,0,0.2,0.2,81,0.07,,,0.08,WUHU216HW,2013-01-12 04:40:00,
2013-01-11 21:00:00,40.7,35.6,30.12,SW,225,0.0,0.0,82,0.12,,,0.08,WUHU216HW,2013-01-12 05:00:00,
2013-01-11 21:03:00,40.7,35.6,30.12,SW,225,0.0,0.0,82,0.12,,,0.13,WUHU216HW,2013-01-12 05:03:00,
2013-01-11 21:08:00,40.7,35.6,30.12,SW,225,0.0,0.0,82,0.12,,,0.13,WUHU216HW,2013-01-12 05:08:00,
2013-01-11 21:30:00,40.0,34.9,30.12,SW,225,0.0,0.0,82,0.04,,,0.13,WUHU216HW,2013-01-12 05:30:00,
2013-01-11 21:35:00,40.0,34.9,30.12,SW,225,0.0,0.0,82,0.04,,,0.13,WUHU216HW,2013-01-12 05:35:00,
2013-01-11 21:40:00,40.0,34.9,30.12,SW,225,0.0,0.0,82,0.04,,,0.13,WUHU216HW,2013-01-12 05:40:00,
2013-01-11 22:00:00,38.5,33.9,30.12,SW,225,0.0,0.0,83,0.00,,,0.13,WUHU216HW,2013-01-12 06:00:00,
2013-01-11 22:05:00,38.5,33.9,30.12,SW,225,0.0,0.0,83,0.00,,,0.13,WUHU216HW,2013-01-12 06:05:00,
2013-01-11 22:10:00,38.5,33.9,30.12,SW,225,0.0,0.0,83,0.00,,,0.13,WUHU216HW,2013-01-12 06:10:00,
2013-01-11 22:30:00,37.6,33.0,30.12,SW,225,0.0,0.0,83,0.00,,,0.13,WUHU216HW,2013-01-12 06:30:00,
2013-01-11 22:35:00,37.6,33.2,30.12,SW,225,0.0,0.0,84,0.00,,,0.13,WUHU216HW,2013-01-12 06:35:00,
2013-01-11 22:40:00,37.6,33.2,30.12,SW,225,0.0,0.0,84,0.00,,,0.13,WUHU216HW,2013-01-12 06:40:00,
2013-01-11 23:00:00,37.4,33.0,30.12,ENE,68,0.0,0.0,84,0.00,,,0.13,WUHU216HW,2013-01-12 07:00:00,
2013-01-11 23:05:00,37.4,33.3,30.12,ENE,68,0.0,0.0,85,0.00,,,0.13,WUHU216HW,2013-01-12 07:05:00,
2013-01-11 23:10:00,37.4,33.3,30.12,ENE,68,0.0,0.0,85,0.00,,,0.13,WUHU216HW,2013-01-12 07:10:00,
2013-01-11 23:30:00,37.6,33.5,30.13,SSE,158,0.0,0.0,85,0.00,,,0.13,WUHU216HW,2013-01-12 07:30:00,
2013-01-11 23:35:00,37.6,33.5,30.13,SSE,158,0.0,0.0,85,0.00,,,0.13,WUHU216HW,2013-01-12 07:35:00,
2013-01-11 23:40:00,37.6,33.5,30.13,SSE,158,0.0,0.0,85,0.00,,,0.13,WUHU216HW,2013-01-12 07:40:00,